Air Quality Table

TIMESTAMP NO2 O3 PM2.5 TEMP HUM AIRPRES WS WD NO
2022-12-08 09:00 10.49 µg/m3 53.09 µg/m3 4.91 µg/m3 14.63 °C N/A 1,001.68 mbar 0.59 m/s 318.67 Deg 0.8 µg/m3
2022-12-08 01:00 21.55 µg/m3 23.85 µg/m3 23.36 µg/m3 15.67 °C N/A 1,000.66 mbar 0.42 m/s 316.1 Deg 1.12 µg/m3
2022-12-07 17:00 14.37 µg/m3 51.86 µg/m3 13.01 µg/m3 19.8 °C N/A 999.84 mbar 1.09 m/s 168.49 Deg 2.01 µg/m3
2022-12-07 09:00 7.24 µg/m3 56.56 µg/m3 5.29 µg/m3 17.87 °C N/A 1,000.56 mbar 1.26 m/s 304.73 Deg 0.63 µg/m3
2022-12-07 01:00 13.22 µg/m3 61.06 µg/m3 8.45 µg/m3 17.67 °C N/A 1,002.05 mbar 1.22 m/s 231.51 Deg 1.08 µg/m3
2022-12-06 17:00 24.45 µg/m3 55.84 µg/m3 11.22 µg/m3 18.27 °C N/A 1,004.55 mbar 1.81 m/s 208.36 Deg 19.02 µg/m3
2022-12-06 09:00 23.63 µg/m3 23.29 µg/m3 5.12 µg/m3 13.73 °C N/A 1,007.28 mbar 0.56 m/s 282.01 Deg 12.69 µg/m3
2022-12-06 01:00 39.79 µg/m3 13.32 µg/m3 13.67 µg/m3 14.16 °C N/A 1,009.39 mbar 0.47 m/s 270.38 Deg 21.69 µg/m3
2022-12-05 17:00 26.15 µg/m3 57.69 µg/m3 18.98 µg/m3 19.26 °C N/A 1,009.79 mbar 1 m/s 228.16 Deg 13.14 µg/m3
2022-12-05 09:00 33.47 µg/m3 20.37 µg/m3 10.22 µg/m3 13.48 °C N/A 1,009.61 mbar 0.59 m/s 292.58 Deg 38.29 µg/m3
2022-12-05 01:00 29.64 µg/m3 26.48 µg/m3 12.57 µg/m3 14.55 °C N/A 1,008.25 mbar 0.61 m/s 271.26 Deg 7.47 µg/m3
2022-12-04 17:00 8.11 µg/m3 73.79 µg/m3 13.5 µg/m3 19.54 °C N/A 1,005.37 mbar 1.8 m/s 273.31 Deg 1.7 µg/m3
2022-12-04 09:00 14.21 µg/m3 40.15 µg/m3 8.01 µg/m3 14.79 °C N/A 1,003.38 mbar 0.65 m/s 286.98 Deg 2.33 µg/m3
2022-12-04 01:00 5.5 µg/m3 74.14 µg/m3 10.87 µg/m3 18.48 °C N/A 1,001.25 mbar 2.53 m/s 234.21 Deg 0.61 µg/m3
2022-12-03 17:00 8.55 µg/m3 72.4 µg/m3 9.72 µg/m3 20.06 °C N/A 999.71 mbar 5 m/s 189.87 Deg 2.35 µg/m3
2022-12-03 09:00 8.55 µg/m3 74.16 µg/m3 5.68 µg/m3 17.58 °C N/A 1,002.02 mbar 3.6 m/s 173.65 Deg 1.4 µg/m3
2022-12-03 01:00 30.77 µg/m3 46.65 µg/m3 5.33 µg/m3 15.45 °C N/A 1,004.36 mbar 1.32 m/s 180.57 Deg 5.33 µg/m3
2022-12-02 17:00 32.29 µg/m3 50.31 µg/m3 11.24 µg/m3 16.83 °C N/A 1,005.57 mbar 2.5 m/s 179.96 Deg 13.81 µg/m3
2022-12-02 09:00 30.02 µg/m3 15.82 µg/m3 5.32 µg/m3 11.9 °C N/A 1,006.55 mbar 0.43 m/s 273.85 Deg 29.3 µg/m3
2022-12-02 01:00 35.43 µg/m3 14.21 µg/m3 7.6 µg/m3 12.45 °C N/A 1,005.79 mbar 0.47 m/s 291.32 Deg 5.36 µg/m3

It is to be noted that the data is provisional and subject to quality assurance procedures. For validated data kindly refer your request to contact.air@era.org.mt